TimeMST,TemperatureF,Dew PointF,Humidity,Sea Level PressureIn,VisibilityMPH,Wind Direction,Wind SpeedMPH,Gust SpeedMPH,PrecipitationIn,Events,Conditions,WindDirDegrees,DateUTC
12:53 AM,42.1,30.0,62,30.10,10.0,North,3.5,-,0.00,Rain,Light Rain,10,2012-11-19 07:53:00
1:53 AM,37.9,30.0,73,30.14,10.0,Calm,Calm,-,0.00,,Overcast,0,2012-11-19 08:53:00
2:53 AM,36.0,30.0,79,30.17,10.0,NNW,3.5,-,N/A,,Overcast,340,2012-11-19 09:53:00
3:53 AM,35.1,28.9,78,30.17,10.0,Calm,Calm,-,N/A,,Scattered Clouds,0,2012-11-19 10:53:00
4:53 AM,30.9,27.0,85,30.21,10.0,NNE,3.5,-,N/A,,Clear,20,2012-11-19 11:53:00
5:53 AM,32.0,27.0,82,30.25,10.0,Calm,Calm,-,N/A,,Clear,0,2012-11-19 12:53:00
6:53 AM,32.0,27.0,82,30.26,10.0,East,5.8,-,N/A,,Clear,90,2012-11-19 13:53:00
7:53 AM,36.0,28.9,76,30.29,10.0,Calm,Calm,-,N/A,,Partly Cloudy,0,2012-11-19 14:53:00
8:53 AM,41.0,30.0,65,30.27,10.0,ENE,4.6,-,N/A,,Mostly Cloudy,60,2012-11-19 15:53:00
9:53 AM,45.0,30.0,56,30.25,10.0,Calm,Calm,-,N/A,,Clear,0,2012-11-19 16:53:00
10:53 AM,46.9,30.0,52,30.24,10.0,WSW,5.8,-,N/A,,Partly Cloudy,250,2012-11-19 17:53:00
11:53 AM,50.0,28.0,43,30.20,10.0,SSW,13.8,-,N/A,,Clear,210,2012-11-19 18:53:00
12:53 PM,53.1,28.0,38,30.17,10.0,SSW,16.1,23.0,N/A,,Scattered Clouds,200,2012-11-19 19:53:00
1:53 PM,52.0,27.0,38,30.18,10.0,South,17.3,21.9,N/A,,Mostly Cloudy,190,2012-11-19 20:53:00
2:53 PM,51.1,26.1,38,30.18,10.0,WSW,12.7,-,N/A,,Partly Cloudy,240,2012-11-19 21:53:00
3:53 PM,48.9,28.0,44,30.21,10.0,SSW,6.9,-,N/A,,Clear,210,2012-11-19 22:53:00
4:53 PM,46.0,28.0,50,30.26,10.0,Calm,Calm,-,N/A,,Clear,0,2012-11-19 23:53:00
5:53 PM,37.0,28.0,70,30.30,10.0,ENE,3.5,-,N/A,,Clear,60,2012-11-20 00:53:00
6:53 PM,34.0,27.0,75,30.34,10.0,NE,3.5,-,N/A,,Clear,50,2012-11-20 01:53:00
7:53 PM,34.0,27.0,75,30.33,10.0,Calm,Calm,-,N/A,,Clear,0,2012-11-20 02:53:00
8:53 PM,33.1,26.1,75,30.33,10.0,Calm,Calm,-,N/A,,Clear,0,2012-11-20 03:53:00
9:53 PM,32.0,25.0,75,30.31,10.0,East,4.6,-,N/A,,Clear,90,2012-11-20 04:53:00
10:53 PM,30.0,24.1,79,30.32,10.0,ENE,5.8,-,N/A,,Clear,60,2012-11-20 05:53:00
11:53 PM,28.0,23.0,81,30.33,10.0,East,3.5,-,N/A,,Clear,80,2012-11-20 06:53:00